LEMUR-2-PETER

Last updated on Wed Feb 14 2018 16:19:06 GMT+0000 (Coordinated Universal Time)

1 40935U 15052F 18042.28339238 .00000785 00000-0 21123-4 0 9990 2 40935 5.9969 328.3259 0002165 234.1484 126.0142 14.76892699128348

Satellite not in orbit

LEMUR-2-PETER